Regional Weather Roundup
Issued by NWS Northern Indiana

Home | Current Version | Previous Version | Graphics & Text | Print | Product List | Glossary On
Versions: 1 2 3 4 5 6 7 8 9 10 11 12 13 14 15 16 17 18 19 20 21 22 23 24 25 26 27 28 29 30 31 32 33 34 35 36 37 38 39 40 41 42 43 44 45 46 47 48 49 50
000
ASUS43 KIWX 171310
RWRIWX

KIWX WEATHER ROUNDUP
NATIONAL WEATHER SERVICE NORTHERN INDIANA
900 AM EDT THU APR 17 2014

NOTE: "FAIR" INDICATES FEW OR NO CLOUDS BELOW 12,000 FEET WITH NO
SIGNIFICANT WEATHER AND/OR OBSTRUCTIONS TO VISIBILITY.

* THESE STATIONS ARE NOT UNDER NWS QUALITY CONTROL. THEY ALSO MAY NOT
  REPORT WEATHER SUCH AS PRECIPITATION OR FOG.

INZ001>027-171400-
NORTHERN INDIANA

CITY           SKY/WX    TMP DP  RH WIND       PRES   REMARKS
GARY*          PTSUNNY   43  27  52 S17       30.18R
VALPARAISO     MOSUNNY   42  26  53 S13       30.21R
MICHIGAN CITY* CLOUDY    43  25  49 SE13G18   30.20R
LAPORTE*       MOSUNNY   40  26  56 S10G16    30.22R
SOUTH BEND     MOSUNNY   44  25  47 S10       30.23R
ELKHART*       SUNNY     41  25  52 SE10G21   30.24S
GOSHEN         SUNNY     42  27  55 SE12      30.25R
MONTICELLO*    SUNNY     42  28  59 SE6       30.22S
LOGANSPORT*    SUNNY     43  28  56 S8        30.25R
ROCHESTER*     SUNNY     43  28  56 SE10G17   30.25S
WARSAW*        SUNNY     41  27  56 S8        30.25S
ANGOLA*        SUNNY     37  25  60 SE8       30.27S
FORT WAYNE     PTSUNNY   40  28  62 S8        30.28S
HUNTINGTON*    FAIR      39  27  63 S6        30.27S
PERU/GRISSOM   SUNNY     43  30  60 S10       30.24R
MARION*        SUNNY     42  27  56 S13       30.27R

$$
INZ028>050-171400-
CENTRAL INDIANA

CITY           SKY/WX    TMP DP  RH WIND       PRES   REMARKS
LAFAYETTE      MOSUNNY   45  26  47 S8G17     30.24R
KOKOMO*        SUNNY     43  28  56 S14       30.25S
MUNCIE*        SUNNY     45  25  45 S15       30.28R
INDIANAPOLIS   PTSUNNY   43  26  51 S8        30.27R

$$
MIZ043>046-050>051-056>058-064>065-071>073-077>080-171400-
SOUTHWEST LOWER MICHIGAN

CITY           SKY/WX    TMP DP  RH WIND       PRES   REMARKS
BATTLE CREEK   MOSUNNY   41  23  48 SE13      30.25F
BENTON HARBOR  CLOUDY    42  26  53 SE15      30.21R
COLDWATER*     MOSUNNY   39  23  52 SE8       30.27S
HILLSDALE*     PTSUNNY   39  23  52 SE10      30.28S
HOLLAND        PTSUNNY   43  26  51 SE16      30.22S
GRAND RAPIDS   PTSUNNY   40  27  59 SE10      30.25S
KALAMAZOO      MOSUNNY   41  24  51 S10G20    30.25S
STURGIS*       MOSUNNY   39  25  56 SE13      30.25S
THREE RIVERS*  FAIR      41  25  51 SE12      30.26S

$$
OHZ001>008-015>018-024>025-171400-
NORTHWEST OHIO

CITY           SKY/WX    TMP DP  RH WIND       PRES   REMARKS
WAUSEON*       FAIR      39  25  56 SE10      30.31S
DEFIANCE       MOSUNNY   39  26  59 SE7       30.31S
FINDLAY        SUNNY     41  26  55 SE15      30.32R
TOLEDO EXPRESS MOSUNNY   39  23  52 VRB6      30.32S
TOLEDO METCALF MOSUNNY   40  25  55 SE9       30.34S
LIMA           SUNNY     44  27  51 S14       30.31R

$$
&&



USA.gov is the U.S. government's official web portal to all federal, state and local government web resources and services.